GSAT0205 (GALILEO 9) (40889 NORAD) Tracking and Keplerian Element Data

This shows tracking and keplerian element data for the satellite.

Feedback or suggestion? Click here.




ElementValue
Catalog40889
NameGSAT0205 (GALILEO 9)
Epoch Orbit5438
Epoch Day158.37984256
Epoch Year2024
RAAN242.0692
Inclination55.2221
Eccentricity0.0003295
Argument of Perigee31.4545
Mean Anonmoly328.6295
Mean Motion1.70473951
Decay Rate4E-08
L11 40889U 15045A 24158.37984256 .00000004 00000+0 00000+0 0 9990
L22 40889 55.2221 242.0692 0003295 31.4545 328.6295 1.70473951 54386



Live tracking and technical data element details for GSAT0205 (GALILEO 9) (NORAD 40889). GSAT0205 (GALILEO 9) can be tracked NOW for your location showing map with azimuth and elevation plus other details from your city location.







IsCatalogInMostPopularTable: catalog: 40889, numindb: 926
Update: records affected: 1



GetName: 40889 GSAT0205 (GALILEO 9)

Hit Count: updated at: Tue, 17 Sep 2024 11:19:54 GMT